K5TWC Weather Reports


time (UTC)temp
F
wind
direction
speed
knots
gust
knots
rain 1hr
in
rain 24hr
in
rain mn
in
humidity
%
barometer
mb
20260508173008 77 171 0.0 9.6 0.00 0.00 0.00 63 1012.9
20260508172503 77 139 0.9 7.8 0.00 0.00 0.00 63 1013.1
20260508172004 76 360 1.7 10.4 0.00 0.00 0.00 63 1013.2
20260508171510 76 159 2.6 10.4 0.00 0.00 0.00 63 1013.2
20260508171003 76 162 1.7 8.7 0.00 0.00 0.00 64 1013.4
20260508170505 75 153 1.7 6.1 0.00 0.00 0.00 65 1013.5
20260508170021 75 142 0.9 7.8 0.00 0.00 0.00 65 1013.7
20260508165506 74 160 0.9 7.8 0.00 0.00 0.00 65 1013.9
20260508165007 74 136 0.9 4.3 0.00 0.00 0.00 67 1014.0
20260508164528 73 150 0.0 3.5 0.00 0.00 0.00 67 1014.1
20260508164007 73 360 0.9 7.8 0.00 0.00 0.00 66 1014.2
20260508163508 73 149 0.9 7.8 0.00 0.00 0.00 66 1014.2
20260508163030 73 196 0.9 6.1 0.00 0.00 0.00 66 1014.2
20260508162503 73 177 0.9 4.3 0.00 0.00 0.00 66 1014.3
20260508162003 73 160 0.0 5.2 0.00 0.00 0.00 66 1014.4
20260508161511 73 170 0.9 5.2 0.00 0.00 0.00 65 1014.4
20260508161004 73 185 0.0 5.2 0.00 0.00 0.00 65 1014.4
20260508160507 73 225 0.0 6.1 0.00 0.00 0.00 65 1014.5
20260508160015 73 219 0.0 7.8 0.00 0.00 0.00 66 1014.6
20260508155504 73 360 0.0 7.8 0.00 0.00 0.00 66 1014.6
20260508155004 72 360 0.0 7.0 0.00 0.00 0.00 67 1014.5
20260508154520 72 360 0.9 7.0 0.00 0.00 0.00 67 1014.6
20260508154007 72 164 0.0 4.3 0.00 0.00 0.00 67 1014.6
20260508153508 71 193 0.0 5.2 0.00 0.00 0.00 68 1014.7
20260508153031 71 360 0.0 5.2 0.00 0.00 0.00 68 1014.8
20260508152511 71 201 0.0 4.3 0.00 0.00 0.00 68 1015.0
20260508152010 71 360 0.0 6.1 0.00 0.00 0.00 67 1015.0
20260508151525 71 161 0.9 6.1 0.00 0.00 0.00 67 1015.0
20260508151004 72 152 0.9 8.7 0.00 0.00 0.00 66 1015.0
20260508150504 72 162 2.6 8.7 0.00 0.00 0.00 66 1014.9
20260508150011 72 167 2.6 6.1 0.00 0.00 0.00 67 1014.6
20260508145505 71 150 0.9 5.2 0.00 0.00 0.00 69 1014.6
20260508145005 70 164 0.0 3.5 0.00 0.00 0.00 69 1014.6
20260508144525 70 215 0.0 3.5 0.00 0.00 0.00 69 1014.7
20260508144006 70 203 0.0 7.8 0.00 0.00 0.00 69 1014.9
20260508143506 70 171 0.0 7.8 0.00 0.00 0.00 69 1015.0
20260508143023 70 147 1.7 7.0 0.00 0.00 0.00 68 1014.9
20260508142506 71 157 3.5 7.0 0.00 0.00 0.00 67 1015.0
20260508142010 71 168 0.9 5.2 0.00 0.00 0.00 68 1015.1
20260508141525 70 142 0.0 4.3 0.00 0.00 0.00 72 1015.2
20260508141010 69 171 0.0 5.2 0.00 0.00 0.00 73 1015.1
20260508140508 68 158 0.9 5.2 0.00 0.00 0.00 73 1015.1
20260508140025 68 127 0.9 3.5 0.00 0.00 0.00 75 1015.2
20260508135504 67 133 0.0 7.0 0.00 0.00 0.00 75 1015.2
20260508135007 67 360 0.9 7.0 0.00 0.00 0.00 77 1015.2
20260508134512 66 360 0.0 4.3 0.00 0.00 0.00 81 1015.1
20260508134005 65 153 0.0 4.3 0.00 0.00 0.00 80 1015.2
20260508133506 64 157 0.0 5.2 0.00 0.00 0.00 81 1015.2
20260508133018 64 151 0.0 5.2 0.00 0.00 0.00 82 1015.1
20260508132512 64 360 0.0 4.3 0.00 0.00 0.00 83 1015.1
20260508132009 63 142 0.0 1.7 0.00 0.00 0.00 83 1015.3
20260508131522 63 143 0.0 1.7 0.00 0.00 0.00 83 1015.3
20260508131007 63 143 0.0 0.9 0.00 0.00 0.00 85 1015.3
20260508130510 63 144 0.0 3.5 0.00 0.00 0.00 84 1015.4
20260508130033 62 142 0.0 3.5 0.00 0.00 0.00 85 1015.3
20260508125508 62 177 0.9 3.5 0.00 0.00 0.00 87 1015.3
20260508125008 62 196 0.0 0.9 0.00 0.00 0.00 88 1015.4
20260508124525 62 196 0.0 2.6 0.00 0.00 0.00 89 1015.6
20260508124006 62 197 0.0 2.6 0.00 0.00 0.00 90 1015.6
20260508123502 61 198 0.0 0.0 0.00 0.00 0.00 90 1015.6
20260508123016 61 198 0.0 0.0 0.00 0.00 0.00 90 1015.5
20260508122509 61 198 0.0 0.0 0.00 0.00 0.00 90 1015.6
20260508122006 61 198 0.0 0.0 0.00 0.00 0.00 90 1015.5
20260508121520 61 198 0.0 0.0 0.00 0.00 0.00 90 1015.7
20260508121005 61 198 0.0 0.0 0.00 0.00 0.00 90 1015.6
20260508120508 61 198 0.0 0.0 0.00 0.00 0.00 90 1015.6
20260508120023 61 198 0.0 0.9 0.00 0.00 0.00 90 1015.4
20260508115507 61 198 0.0 0.9 0.00 0.00 0.00 89 1015.4
20260508115012 61 198 0.0 3.5 0.00 0.00 0.00 89 1015.6
20260508114526 61 198 0.0 3.5 0.00 0.00 0.00 89 1015.4
20260508114007 61 191 0.0 3.5 0.00 0.00 0.00 89 1015.4
20260508113508 61 186 0.9 3.5 0.00 0.00 0.00 89 1015.3
20260508113027 61 209 0.0 0.9 0.00 0.00 0.00 89 1015.5
20260508112506 61 215 0.0 0.0 0.00 0.00 0.00 89 1015.6
20260508112006 61 215 0.0 0.0 0.00 0.00 0.00 89 1015.9
20260508111514 61 215 0.0 0.0 0.00 0.00 0.00 89 1015.8
20260508111007 61 215 0.0 0.0 0.00 0.00 0.00 89 1015.8
20260508110504 61 303 0.0 1.7 0.00 0.00 0.00 89 1015.9
20260508110020 61 304 0.0 4.3 0.00 0.00 0.00 89 1016.1
20260508105506 61 304 0.9 4.3 0.00 0.00 0.00 89 1016.3
20260508105008 61 307 0.9 4.3 0.00 0.00 0.00 89 1016.1
20260508104528 61 197 0.0 2.6 0.00 0.00 0.00 89 1015.3
20260508104014 61 197 0.0 2.6 0.00 0.00 0.00 89 1015.1
20260508103506 61 197 0.0 2.6 0.00 0.00 0.00 89 1014.7
20260508103033 61 196 0.0 2.6 0.00 0.00 0.00 89 1014.4
20260508102513 61 184 0.0 0.9 0.00 0.00 0.00 89 1014.5
20260508102012 61 184 0.0 0.9 0.00 0.00 0.00 89 1014.5
20260508101528 61 182 0.0 1.7 0.00 0.00 0.00 89 1014.4
20260508101003 61 182 0.0 1.7 0.00 0.00 0.00 90 1014.2
20260508100503 61 161 0.0 1.7 0.00 0.00 0.00 90 1014.4
20260508100019 61 161 0.0 1.7 0.00 0.00 0.00 90 1014.4
20260508095509 61 161 0.0 0.0 0.00 0.00 0.00 90 1014.3
20260508095008 61 161 0.0 0.0 0.00 0.00 0.00 90 1014.4
20260508094524 61 161 0.0 0.0 0.00 0.00 0.00 89 1014.7
20260508094009 61 161 0.0 0.0 0.00 0.00 0.00 89 1014.7
20260508093507 61 161 0.0 0.0 0.00 0.00 0.00 89 1014.6
20260508093035 61 161 0.0 0.0 0.00 0.00 0.00 89 1014.5
20260508092510 61 161 0.0 0.0 0.00 0.00 0.00 89 1014.6
20260508092012 61 161 0.0 0.9 0.00 0.00 0.00 89 1014.6
20260508091533 61 161 0.0 1.7 0.00 0.00 0.00 89 1014.8
20260508091007 61 160 0.0 1.7 0.00 0.00 0.00 89 1014.7
20260508090510 61 160 0.0 1.7 0.00 0.00 0.00 89 1014.7
20260508090027 61 159 0.0 2.6 0.00 0.00 0.00 89 1014.6
20260508085507 61 157 0.0 4.3 0.00 0.00 0.00 89 1014.5
20260508085004 61 360 0.9 4.3 0.00 0.00 0.00 89 1014.4
20260508084520 61 360 0.0 4.3 0.00 0.00 0.00 89 1014.6
20260508084008 62 167 0.9 3.5 0.00 0.00 0.00 89 1014.8
20260508083508 62 360 0.0 0.9 0.00 0.00 0.00 88 1015.3
20260508083021 62 219 0.0 0.9 0.00 0.00 0.00 88 1015.5
20260508082517 62 224 0.0 0.0 0.00 0.00 0.00 88 1015.6
20260508082011 62 225 0.0 0.0 0.00 0.00 0.00 88 1015.7
20260508081526 61 225 0.0 0.0 0.00 0.00 0.00 88 1015.9
20260508081010 61 225 0.0 0.9 0.00 0.00 0.00 87 1016.2
20260508080507 61 225 0.0 0.9 0.00 0.00 0.00 87 1016.4
20260508080030 61 224 0.0 2.6 0.00 0.00 0.00 87 1016.4
20260508075509 62 225 0.0 2.6 0.00 0.00 0.00 87 1016.4
20260508075008 61 194 0.0 0.9 0.00 0.00 0.00 87 1016.2
20260508074527 61 194 0.0 0.0 0.00 0.00 0.00 87 1015.9
20260508074005 61 194 0.0 0.0 0.00 0.00 0.00 87 1015.5
20260508073505 61 194 0.0 0.0 0.00 0.00 0.00 87 1015.7
20260508073023 61 194 0.0 0.0 0.00 0.00 0.00 87 1015.8
20260508072508 61 194 0.0 0.9 0.00 0.00 0.00 87 1015.7
20260508072008 61 194 0.0 0.9 0.00 0.00 0.00 87 1015.8
20260508071524 61 194 0.0 0.0 0.00 0.00 0.00 87 1015.8
20260508071012 61 194 0.0 0.0 0.00 0.00 0.00 87 1015.9
20260508070507 61 194 0.0 0.0 0.00 0.00 0.00 87 1015.7
20260508070027 61 194 0.0 0.0 0.00 0.00 0.00 87 1016.0
20260508065509 61 194 0.0 0.0 0.00 0.00 0.00 87 1016.2
20260508065008 61 194 0.0 0.0 0.00 0.00 0.00 86 1016.2
20260508064510 61 194 0.0 0.0 0.00 0.00 0.00 86 1016.3
20260508064008 61 194 0.0 0.0 0.00 0.00 0.00 87 1016.3
20260508063504 61 194 0.0 0.0 0.00 0.00 0.00 87 1016.4
20260508063017 61 194 0.0 0.0 0.00 0.00 0.00 87 1016.4
20260508062507 61 194 0.0 0.0 0.00 0.00 0.00 87 1016.4
20260508062007 61 194 0.0 0.0 0.00 0.00 0.00 87 1016.5
20260508061524 61 194 0.0 0.0 0.00 0.00 0.00 87 1016.5
20260508061007 61 194 0.0 0.0 0.00 0.00 0.00 87 1016.4
20260508060507 61 194 0.0 0.0 0.00 0.00 0.00 87 1016.4
20260508060007 61 194 0.0 0.0 0.00 0.00 0.00 87 1016.4
20260508055503 61 194 0.0 0.0 0.00 0.00 0.00 86 1016.4
20260508055003 61 194 0.0 0.0 0.00 0.00 0.00 86 1016.4
20260508054508 61 194 0.0 0.0 0.00 0.00 0.00 86 1016.5
20260508054003 61 194 0.0 0.0 0.00 0.00 0.00 86 1016.5
20260508053503 61 194 0.0 0.0 0.00 0.00 0.00 85 1016.6
20260508053012 61 194 0.0 0.0 0.00 0.00 0.00 85 1016.6
20260508052506 61 194 0.0 0.0 0.00 0.00 0.00 85 1016.6
20260508052007 62 194 0.0 0.0 0.00 0.00 0.00 85 1016.5
20260508051517 62 194 0.0 0.0 0.00 0.00 0.00 84 1016.5
20260508051007 62 194 0.0 0.0 0.00 0.00 0.00 84 1016.5
20260508050506 62 194 0.0 0.0 0.00 0.00 0.00 83 1016.5
20260508050033 62 194 0.0 0.0 0.00 0.00 0.00 83 1016.5
20260508045504 62 194 0.0 0.0 0.00 0.00 0.00 82 1016.5
20260508045003 62 194 0.0 0.0 0.00 0.00 0.00 82 1016.7
20260508044505 62 194 0.0 0.0 0.00 0.00 0.00 82 1016.4
20260508044004 62 194 0.0 0.0 0.00 0.00 0.00 82 1016.4
20260508043502 62 194 0.0 0.0 0.00 0.00 0.00 82 1016.5
20260508043010 62 194 0.0 0.0 0.00 0.00 0.00 82 1016.3
20260508042505 62 194 0.0 0.0 0.00 0.00 0.00 82 1016.3
20260508042008 62 194 0.0 0.0 0.00 0.00 0.00 82 1016.4
20260508041515 62 194 0.0 0.0 0.00 0.00 0.00 81 1016.4
20260508041007 62 194 0.0 0.0 0.00 0.00 0.00 82 1016.4
20260508040507 62 194 0.0 0.0 0.00 0.00 0.00 81 1016.3
20260508040028 62 194 0.0 0.0 0.00 0.00 0.00 81 1016.2
20260508035507 62 194 0.0 0.0 0.00 0.00 0.00 80 1016.3
20260508035007 63 194 0.0 0.0 0.00 0.00 0.00 80 1016.3
20260508034523 63 194 0.0 0.0 0.00 0.00 0.00 80 1016.3
20260508034002 63 194 0.0 0.0 0.00 0.00 0.00 80 1016.3
20260508033502 63 194 0.0 0.0 0.00 0.00 0.00 79 1016.2
20260508033010 63 194 0.0 0.0 0.00 0.00 0.00 79 1016.2
20260508032503 64 194 0.0 0.0 0.00 0.00 0.00 78 1016.2
20260508032004 64 194 0.0 0.0 0.00 0.00 0.00 77 1016.3
20260508031513 64 194 0.0 0.0 0.00 0.00 0.00 76 1016.2
20260508031004 64 194 0.0 0.0 0.00 0.00 0.00 76 1016.1
20260508030507 64 194 0.0 0.0 0.00 0.00 0.00 76 1016.1
20260508030018 64 194 0.0 0.0 0.00 0.00 0.00 75 1016.0
20260508025507 65 194 0.0 0.0 0.00 0.00 0.00 74 1016.1
20260508025007 65 194 0.0 0.0 0.00 0.00 0.00 74 1016.1
20260508024523 65 194 0.0 0.0 0.00 0.00 0.00 74 1016.1
20260508024007 65 194 0.0 0.0 0.00 0.00 0.00 74 1016.2
20260508023507 65 194 0.0 0.0 0.00 0.00 0.00 73 1016.1
20260508023027 65 194 0.0 0.9 0.00 0.00 0.00 73 1016.0
20260508022506 65 194 0.0 0.9 0.00 0.00 0.00 73 1015.9
20260508022003 65 194 0.0 0.0 0.00 0.00 0.00 73 1015.8
20260508021508 65 194 0.0 0.0 0.00 0.00 0.00 72 1015.8
20260508021002 66 194 0.0 0.0 0.00 0.00 0.00 72 1015.8
20260508020503 66 194 0.0 0.0 0.00 0.00 0.00 72 1015.7
20260508020026 66 194 0.0 0.0 0.00 0.00 0.00 72 1015.6
20260508015504 66 194 0.0 0.0 0.00 0.00 0.00 71 1015.7
20260508015004 66 194 0.0 0.9 0.00 0.00 0.00 71 1015.7
20260508014520 66 194 0.0 0.9 0.00 0.00 0.00 71 1015.9
20260508014006 66 194 0.0 0.9 0.00 0.00 0.00 70 1015.8
20260508013506 67 194 0.0 0.9 0.00 0.00 0.00 70 1015.8
20260508013021 67 194 0.0 0.9 0.00 0.00 0.00 69 1015.6
20260508012510 67 194 0.0 0.9 0.00 0.00 0.00 69 1015.6
20260508012008 67 194 0.0 0.9 0.00 0.00 0.00 69 1015.6
20260508011525 67 194 0.0 0.9 0.00 0.00 0.00 69 1015.6
20260508011004 67 194 0.0 0.9 0.00 0.00 0.00 69 1015.6
20260508010503 67 194 0.0 0.9 0.00 0.00 0.00 68 1015.6
20260508010011 68 194 0.0 0.9 0.00 0.00 0.00 68 1015.5
20260508005505 68 194 0.0 2.6 0.00 0.00 0.00 68 1015.6
20260508005006 68 194 0.0 2.6 0.00 0.00 0.00 67 1015.6
20260508004515 68 360 0.0 1.7 0.00 0.00 0.00 67 1015.6
20260508004008 68 184 0.0 4.3 0.00 0.00 0.00 67 1015.6
20260508003504 68 180 0.0 4.3 0.00 0.00 0.00 67 1015.5
20260508003022 69 181 0.0 4.3 0.00 0.00 0.00 67 1015.4
20260508002508 69 167 0.0 5.2 0.00 0.00 0.00 67 1015.5
20260508002010 69 157 0.0 5.2 0.00 0.00 0.00 66 1015.6
20260508001541 69 144 0.0 5.2 0.00 0.00 0.00 66 1015.7
20260508001008 69 360 0.0 5.2 0.00 0.00 0.00 66 1015.7
20260508000511 69 158 0.9 5.2 0.00 0.00 0.00 65 1015.7
20260508000025 69 188 0.0 5.2 0.00 0.00 0.00 66 1015.7
20260507235504 69 360 0.0 8.7 0.00 0.00 0.00 65 1015.6
20260507235006 70 165 1.7 8.7 0.00 0.00 0.00 66 1015.5
20260507234516 70 360 0.9 7.0 0.00 0.00 0.00 66 1015.6
20260507234051 70 162 1.7 7.0 0.00 0.00 0.00 65 1015.7
20260507233504 70 360 0.0 8.7 0.00 0.00 0.00 66 1015.5
20260507233018 70 177 1.7 8.7 0.00 0.01 0.00 65 1015.6
20260507232506 70 176 0.9 7.8 0.00 0.01 0.00 64 1015.7
20260507232007 71 178 1.7 7.8 0.00 0.01 0.00 64 1015.8
20260507231535 71 360 0.9 5.2 0.00 0.01 0.00 64 1015.9
20260507231003 71 163 0.9 5.2 0.00 0.01 0.00 63 1015.8
20260507230506 72 360 0.9 7.0 0.00 0.01 0.00 62 1015.8
20260507230006 72 360 0.9 7.0 0.00 0.01 0.00 62 1015.7
20260507225505 72 360 0.0 5.2 0.00 0.01 0.00 62 1015.7
20260507225004 72 360 0.9 5.2 0.00 0.01 0.00 61 1015.7
20260507224532 73 153 1.7 5.2 0.00 0.01 0.00 60 1015.7
20260507224010 73 360 0.9 5.2 0.00 0.01 0.00 56 1015.9
20260507223508 73 127 0.0 1.7 0.00 0.02 0.00 56 1015.8
20260507223016 73 127 0.0 1.7 0.00 0.02 0.00 56 1015.9
20260507222504 73 128 0.0 1.7 0.00 0.02 0.00 55 1015.8
20260507222006 73 131 0.0 2.6 0.00 0.02 0.00 55 1015.8
20260507221521 74 132 0.0 2.6 0.00 0.02 0.00 54 1015.9
20260507221008 74 133 0.0 1.7 0.00 0.02 0.00 55 1016.1
20260507220508 73 132 0.0 3.5 0.00 0.03 0.00 54 1016.0
20260507220037 73 132 0.0 3.5 0.00 0.03 0.00 54 1015.9
20260507215504 73 130 0.9 3.5 0.00 0.03 0.00 54 1015.9
20260507215005 73 360 0.0 3.5 0.00 0.03 0.00 55 1016.1
20260507214509 73 360 0.9 3.5 0.00 0.03 0.00 54 1016.1
20260507214003 73 108 0.0 2.6 0.00 0.03 0.00 55 1016.2
20260507213504 74 91 0.0 2.6 0.00 0.03 0.00 52 1016.2
20260507213011 74 93 0.0 2.6 0.00 0.04 0.00 53 1016.3
20260507212505 73 19 0.0 2.6 0.00 0.04 0.00 53 1016.2
20260507212008 73 49 0.0 3.5 0.00 0.04 0.00 52 1016.3
20260507211529 73 360 0.9 3.5 0.00 0.04 0.00 52 1016.3
20260507211010 73 95 0.0 3.5 0.00 0.05 0.00 52 1016.3
20260507210507 74 360 0.0 3.5 0.00 0.05 0.00 52 1016.3
20260507210025 74 59 0.9 2.6 0.00 0.05 0.00 52 1016.3
20260507205508 74 5 0.0 4.3 0.00 0.05 0.00 52 1016.3
20260507205007 73 78 0.0 4.3 0.00 0.05 0.00 52 1016.3
20260507204524 73 55 0.9 4.3 0.00 0.05 0.00 53 1016.3
20260507204003 73 96 0.9 4.3 0.00 0.06 0.00 54 1016.3
20260507203504 73 360 0.0 5.2 0.00 0.06 0.00 53 1016.5
20260507203010 73 100 0.9 5.2 0.00 0.06 0.00 53 1016.6
20260507202503 73 121 0.0 5.2 0.00 0.06 0.00 53 1016.8
20260507202005 73 121 1.7 5.2 0.00 0.07 0.00 54 1016.9
20260507201531 72 99 1.7 5.2 0.00 0.07 0.00 54 1016.8
20260507201005 72 360 1.7 5.2 0.00 0.07 0.00 53 1017.0
20260507200504 72 46 2.6 6.1 0.00 0.07 0.00 54 1016.9
20260507200022 72 49 1.7 6.1 0.00 0.07 0.00 54 1017.0
20260507195507 72 123 1.7 7.0 0.00 0.07 0.00 54 1017.1
20260507195008 72 127 0.9 7.0 0.00 0.07 0.00 55 1017.2
20260507194526 72 15 0.9 7.8 0.00 0.08 0.00 55 1017.3
20260507194007 72 55 0.0 7.8 0.00 0.08 0.00 55 1017.3
20260507193507 72 31 1.7 5.2 0.00 0.08 0.00 55 1017.3
20260507193031 72 29 0.0 5.2 0.00 0.09 0.00 56 1017.3
20260507192502 72 316 0.9 5.2 0.00 0.09 0.00 57 1017.5
20260507192005 72 27 0.9 6.1 0.00 0.09 0.00 58 1017.5
20260507191514 71 47 2.6 6.1 0.00 0.09 0.00 57 1017.5
20260507191003 71 344 0.9 7.0 0.00 0.09 0.00 58 1017.6
20260507190504 70 123 1.7 7.0 0.00 0.09 0.00 57 1017.6
20260507190018 70 360 3.5 7.0 0.00 0.10 0.00 58 1017.7
20260507185508 71 66 0.0 6.1 0.00 0.10 0.00 57 1017.7
20260507185007 70 360 0.9 8.7 0.00 0.10 0.00 60 1017.7
20260507184518 70 329 0.9 8.7 0.00 0.11 0.00 59 1017.7
20260507184013 70 101 0.9 9.6 0.00 0.11 0.00 59 1017.8
20260507183510 70 35 1.7 9.6 0.00 0.11 0.00 59 1017.9
20260507183024 70 25 1.7 7.8 0.00 0.11 0.00 59 1017.8
20260507182509 70 39 0.9 7.8 0.00 0.12 0.00 59 1017.9
20260507182010 70 26 1.7 7.0 0.00 0.12 0.00 60 1018.0
20260507181526 69 53 0.0 7.8 0.00 0.13 0.00 61 1018.1
20260507181006 69 328 1.7 7.8 0.00 0.13 0.00 60 1018.3
20260507180506 69 59 1.7 8.7 0.00 0.13 0.00 59 1018.4
20260507180016 69 92 2.6 8.7 0.00 0.14 0.00 59 1018.3
20260507175503 69 101 1.7 7.0 0.00 0.14 0.00 59 1018.6
20260507175006 68 36 0.0 7.8 0.00 0.15 0.00 61 1018.6
20260507174532 68 319 0.9 9.6 0.00 0.15 0.00 60 1018.5
20260507174008 68 324 0.9 9.6 0.00 0.16 0.00 60 1018.6
20260507173509 68 344 0.0 7.8 0.00 0.16 0.00 62 1018.8